Cut Bank, MT

3:39 AM MST on November 12, 2019 (GMT -0700)
Cut Bank Municipal

Weather History for KCTB - September, 2019

Change the Weather History Date:

Friday, September 13, 2019

  Actual Average Record
Temperature  
Mean Temperature 62 °F 55 °F  
Max Temperature 73 °F 69 °F 87 °F (1908)
Min Temperature 49 °F 41 °F 20 °F (1970)
Degree Days  
Heating Degree Days 4 11  
Month to date heating degree days 89 113  
Since 1 July heating degree days 262 307  
Cooling Degree Days 0 0  
Month to date cooling degree days 1 6  
Year to date cooling degree days 105 159  
Growing Degree Days 12 (Base 50)    
Moisture  
Dew Point 37 °F    
Average Humidity 43    
Maximum Humidity 63    
Minimum Humidity 25    
Precipitation  
Precipitation 0.00 in 0.04 in 0.81 in (1940)
Month to date precipitation 0.49 0.58  
Year to date precipitation 9.32 9.24  
Snow  
Snow - - - ()
Snow Depth 0.00 in    
Sea Level Pressure  
Sea Level Pressure 29.94 in    
Wind  
Wind Speed 14 mph ()    
Max Wind Speed 38 mph    
Max Gust Speed 47 mph    
Visibility 10.0 miles    
Events      
T = Trace of Precipitation, MM = Missing Value Source: Averaged Metar Reports

Daily Weather History Graph

Daily Weather History Graph

Search for Another Location

Airport or City:

Astronomy

Sep. 13, 2019 Rise Set
Actual Time 7:03 AM MDT 7:46 PM MDT
Civil Twilight 6:31 AM MDT 8:18 PM MDT
Nautical Twilight 5:53 AM MDT 8:56 PM MDT
Astronomical Twilight 5:13 AM MDT 9:35 PM MDT
Moon 8:07 PM MDT (9/13) 6:15 AM MDT (9/13)
Length of Visible Light 13h 46m
Length of Day
12h 43m
Full, 100% of the Moon is Illuminated
Sep 13
Full
Sep 13
Full
Sep 21
Last Quarter
Sep 28
New
Oct 5
First Quarter

Hourly Weather History & Observations

Time (MDT) Temp. Dew Point Humidity Pressure Visibility Wind Dir Wind Speed Gust Speed Precip Events Conditions
1:56 AM 57.9 °F 39.0 °F 49% 30.00 in 10.0 mi WSW 16.1 mph - N/A   Clear
2:56 AM 57.9 °F 37.9 °F 47% 29.97 in 10.0 mi West 17.3 mph - N/A   Clear
3:56 AM 54.0 °F 36.0 °F 51% 29.97 in 10.0 mi SW 8.1 mph - N/A   Clear
4:56 AM 51.1 °F 34.0 °F 52% 29.97 in 10.0 mi SSW 5.8 mph - N/A   Clear
5:56 AM 55.9 °F 37.0 °F 49% 29.95 in 10.0 mi West 15.0 mph - N/A   Clear
6:56 AM 57.9 °F 37.0 °F 46% 29.95 in 10.0 mi WSW 17.3 mph - N/A   Clear
7:56 AM 62.1 °F 37.9 °F 41% 29.96 in 10.0 mi West 17.3 mph - N/A   Clear
8:56 AM 59.0 °F 39.9 °F 49% 29.96 in 10.0 mi WSW 10.4 mph - N/A   Clear
9:56 AM 64.0 °F 39.9 °F 41% 29.96 in 10.0 mi SSW 3.5 mph - N/A   Clear
10:56 AM 66.9 °F 39.0 °F 36% 29.94 in 10.0 mi SW 19.6 mph - N/A   Clear
11:56 AM 66.9 °F 37.9 °F 34% 29.94 in 10.0 mi WSW 25.3 mph 33.4 mph N/A   Clear
12:56 PM 71.1 °F 33.1 °F 25% 29.90 in 10.0 mi WSW 38.0 mph 47.2 mph N/A   Partly Cloudy
1:56 PM 69.1 °F 36.0 °F 30% 29.90 in 10.0 mi WSW 28.8 mph 36.8 mph N/A   Partly Cloudy
2:56 PM 69.1 °F 39.9 °F 35% 29.91 in 10.0 mi WSW 29.9 mph 40.3 mph N/A   Clear
3:56 PM 71.1 °F 39.9 °F 32% 29.89 in 10.0 mi West 24.2 mph 28.8 mph N/A   Partly Cloudy
4:56 PM 69.1 °F 37.9 °F 32% 29.90 in 10.0 mi West 24.2 mph 32.2 mph N/A   Clear
5:56 PM 66.9 °F 35.1 °F 31% 29.89 in 10.0 mi West 25.3 mph 33.4 mph N/A   Clear
6:56 PM 64.0 °F 36.0 °F 35% 29.91 in 10.0 mi West 13.8 mph 25.3 mph N/A   Clear
7:56 PM 55.9 °F 37.0 °F 49% 29.93 in 10.0 mi West 11.5 mph - N/A   Clear
8:56 PM 52.0 °F 37.0 °F 57% 29.96 in 10.0 mi SSE 11.5 mph - N/A   Clear
9:56 PM 53.1 °F 36.0 °F 52% 29.96 in 10.0 mi West 6.9 mph - N/A   Clear
10:56 PM 52.0 °F 37.9 °F 59% 29.95 in 10.0 mi West 11.5 mph - N/A   Clear
11:56 PM 50.0 °F 37.9 °F 63% 29.95 in 10.0 mi WSW 6.9 mph - N/A   Clear